Location: Beaver Brook Station
(42.3793°N, 71.2203°W)
Time: 02:02:46
(UTC+00:00)

Cosmos 1340 - Pass Details

Date: 29 October 2020
Orbit: 501 x 504 km, 81.2° (Epoch: 05 December)

Event Time Altitude Azimuth Distance (km) Brightness Sun altitude
Rises 22:05:57 0° 359° (N) 2,616 6.1 -5.2°
Reaches altitude 10° 22:08:16 10° 10° (N) 1,727 5.1 -5.6°
Maximum altitude 22:11:40 31° 74° (ENE) 907 3.4 -6.2°
Drops below altitude 10° 22:15:03 10° 138° (SE) 1,714 5.1 -6.8°
Sets 22:17:20 0° 149° (SSE) 2,593 6.1 -7.2°
